Погода в Нарочи

Беларусь     54°33′50″N   26°43′34″E
темп.,
°C
ветер,
м/с
пор.,
м/с
влажн.,
%
обл.,
%
осадки,
мм/ч
давл.,
гПа
погр.,
м
13 июня, вс
вс1300:00+14з3797100 1.6 1003307
03:00+12зсз3997100 5.6 1004543
06:00+12зсз2698100 2.6 1004355
09:00+13сз3694100 3.1 1005466
12:00+15сз4584100 0.9 1006763
15:00+17ссз5678100 2.1 1007989
18:00+14сз5988100 1.4 1009467
21:00+14ссз6129179 2.2 1010700
14 июня, пн
пн1400:00+12ссз5128270 0.0 1012603
03:00+11ссз6128389 0.0 1014555
06:00+11ссз51386100 0.0 1015518
09:00+13с5108022 0.0 1017611
12:00+19ссв566333 0.0 10171157
15:00+20ссв456079 0.0 10171378
18:00+20ссв3467100 0.0 1017711
21:00+18с227796 0.0 101637
15 июня, вт
вт1500:00+15сз368191 0.0 1017149
03:00+13сз247898 0.0 1017109
06:00+12зсз238338 0.0 101796
09:00+17зсз346356 0.0 1017443
12:00+20з3452100 0.0 10161034
15:00+22з4556100 0.0 10151470
18:00+21зсз4566100 0.1 10141017
21:00+16зсз389493 0.9 1015318
16 июня, ср
ср1600:00+14зсз379834 0.0 1016285
03:00+11сз369712 0.0 1017141
06:00+9ссз39940 0.0 1018235
09:00+14с356812 0.0 1019484
12:00+18с345081 0.0 10201183
15:00+20с444714 0.0 10201550
18:00+20ссв44555 0.0 10201439
21:00+16св22755 0.0 102113
17 июня, чт
чт1700:00+12ссв22820 0.0 102212
03:00+10ссв22835 0.0 102415
06:00+11всв22840 0.0 102432
09:00+18всв24590 0.0 1024381
12:00+22в34480 0.0 10251301
15:00+24вюв34444 0.0 10241714
18:00+24вюв34515 0.0 10241013
21:00+18вюв35775 0.0 102472